Location: Rounton
(54.4000°N, 1.3500°W)
Time: 07:34:40
(UTC+00:00)

Tiros 1 despin weight - Pass Details

Date: 03 December 2021
Orbit: 592 x 641 km, 48.2° (Epoch: 19 January)

Event Time Altitude Azimuth Distance (km) Brightness Sun altitude
Rises 16:45:42 0° 262° (W) 2,826 ? -8.4°
Reaches altitude 10° 16:48:07 10° 253° (WSW) 1,923 ? -8.7°
Maximum altitude 16:52:08 35° 188° (S) 957 ? -9.2°
Drops below altitude 10° 16:56:09 10° 122° (ESE) 1,927 ? -9.8°
Enters shadow 16:58:02 - 115° (ESE) 2,629 ? -10.0°
Sets 16:58:34 0° 113° (ESE) 2,833 - -10.1°
